Torna al catalogo

DELTA 1 R/B(2) *

AttivoHEO
NORAD 2971·ROCKET BODY·🇺🇸 United States

Lanciato Sep 28, 1967 da Cape Canaveral Space Force Station

Loading…

Prossimi Passaggi (prossime 24 ore)

TLE

AggiornatoSource: Space-Track

Epoca: Sep 13, 2026, 17:11 UTC

1  2971U 67094C   26256.71629190  .00000906  00000-0  64321-3 0  9995
2  2971  28.1750 129.1823 6523263 197.5126 120.4135  3.23196095562690

Traccia DELTA 1 R/B(2) * in tempo reale con AllMySat

Download on the App Store